TimeEST,TemperatureF,Dew PointF,Humidity,Sea Level PressureIn,VisibilityMPH,Wind Direction,Wind SpeedMPH,Gust SpeedMPH,PrecipitationIn,Events,Conditions,WindDirDegrees,DateUTC
12:15 AM,37.4,35.6,93,30.08,6.0,NNE,6.9,-,N/A,,Overcast,30,2012-11-06 05:15:00
12:35 AM,37.4,35.6,93,30.08,5.0,NNE,6.9,-,N/A,,Overcast,30,2012-11-06 05:35:00
12:55 AM,37.4,35.6,93,30.08,10.0,NNE,6.9,-,N/A,,Overcast,30,2012-11-06 05:55:00
1:15 AM,37.4,35.6,93,30.08,10.0,NE,10.4,-,N/A,,Overcast,40,2012-11-06 06:15:00
1:35 AM,37.4,35.6,93,30.08,10.0,NE,10.4,-,N/A,,Overcast,50,2012-11-06 06:35:00
1:55 AM,37.4,35.6,93,30.08,10.0,NE,8.1,-,N/A,,Overcast,40,2012-11-06 06:55:00
2:15 AM,37.4,35.6,93,30.09,10.0,NE,10.4,-,N/A,,Overcast,40,2012-11-06 07:15:00
2:35 AM,39.2,35.6,87,30.08,10.0,ENE,10.4,-,N/A,,Overcast,60,2012-11-06 07:35:00
2:55 AM,39.2,35.6,87,30.08,10.0,NE,8.1,-,N/A,,Overcast,50,2012-11-06 07:55:00
3:15 AM,39.2,35.6,87,30.08,10.0,ENE,8.1,-,N/A,,Overcast,70,2012-11-06 08:15:00
3:35 AM,39.2,35.6,87,30.09,10.0,NE,11.5,-,N/A,,Overcast,50,2012-11-06 08:35:00
3:55 AM,39.2,35.6,87,30.08,10.0,NE,12.7,-,N/A,,Overcast,50,2012-11-06 08:55:00
4:15 AM,39.2,35.6,87,30.06,10.0,ENE,12.7,18.4,N/A,,Overcast,60,2012-11-06 09:15:00
4:35 AM,39.2,35.6,87,30.05,10.0,NE,12.7,20.7,N/A,,Overcast,40,2012-11-06 09:35:00
4:55 AM,39.2,35.6,87,30.06,10.0,NE,8.1,18.4,N/A,,Overcast,50,2012-11-06 09:55:00
5:15 AM,39.2,35.6,87,30.08,10.0,NE,9.2,-,N/A,,Overcast,40,2012-11-06 10:15:00
5:35 AM,39.2,35.6,87,30.08,10.0,ENE,9.2,-,N/A,,Overcast,60,2012-11-06 10:35:00
5:55 AM,39.2,35.6,87,30.08,10.0,NE,12.7,-,N/A,,Overcast,40,2012-11-06 10:55:00
6:15 AM,39.2,35.6,87,30.08,10.0,ENE,10.4,-,N/A,,Overcast,60,2012-11-06 11:15:00
6:35 AM,39.2,35.6,87,30.09,10.0,NNE,10.4,-,N/A,,Overcast,20,2012-11-06 11:35:00
6:55 AM,39.2,35.6,87,30.10,10.0,NE,5.8,-,N/A,,Overcast,50,2012-11-06 11:55:00
7:15 AM,39.2,35.6,87,30.12,10.0,ENE,4.6,-,N/A,,Overcast,60,2012-11-06 12:15:00
7:35 AM,39.2,37.4,93,30.11,10.0,North,8.1,-,N/A,,Overcast,360,2012-11-06 12:35:00
7:55 AM,39.2,37.4,93,30.09,10.0,NNE,13.8,-,N/A,,Overcast,20,2012-11-06 12:55:00
8:15 AM,39.2,35.6,87,30.09,10.0,NNE,16.1,19.6,N/A,,Overcast,20,2012-11-06 13:15:00
8:35 AM,39.2,35.6,87,-9999,10.0,NNE,15.0,20.7,N/A,,Overcast,20,2012-11-06 13:35:00
8:55 AM,39.2,35.6,87,-9999,10.0,NNE,10.4,16.1,N/A,,Overcast,20,2012-11-06 13:55:00
9:15 AM,39.2,35.6,87,-9999,10.0,NNE,19.6,27.6,N/A,,Overcast,20,2012-11-06 14:15:00
9:35 AM,39.2,35.6,87,-9999,10.0,NNE,15.0,20.7,N/A,,Overcast,20,2012-11-06 14:35:00
9:55 AM,41.0,35.6,81,-9999,10.0,NNE,16.1,27.6,N/A,,Overcast,20,2012-11-06 14:55:00
10:15 AM,41.0,35.6,81,-9999,10.0,NNE,21.9,32.2,N/A,,Overcast,30,2012-11-06 15:15:00
10:35 AM,41.0,35.6,81,-9999,10.0,NNE,21.9,31.1,N/A,,Overcast,30,2012-11-06 15:35:00
10:55 AM,42.8,33.8,70,-9999,10.0,NNE,20.7,28.8,N/A,,Overcast,30,2012-11-06 15:55:00
11:15 AM,42.8,35.6,76,-9999,10.0,NNE,25.3,34.5,N/A,Rain,Light Rain,20,2012-11-06 16:15:00
11:35 AM,42.8,35.6,76,-9999,10.0,NNE,25.3,38.0,N/A,,Overcast,20,2012-11-06 16:35:00
11:55 AM,44.6,33.8,66,-9999,10.0,NNE,21.9,40.3,N/A,,Overcast,20,2012-11-06 16:55:00
12:15 PM,46.4,33.8,62,-9999,10.0,NNE,26.5,36.8,N/A,,Overcast,20,2012-11-06 17:15:00
12:35 PM,48.2,32.0,54,-9999,10.0,NNE,27.6,36.8,N/A,,Overcast,30,2012-11-06 17:35:00
12:55 PM,46.4,32.0,57,-9999,10.0,NNE,25.3,38.0,N/A,,Overcast,20,2012-11-06 17:55:00
1:15 PM,46.4,33.8,62,-9999,10.0,North,21.9,31.1,N/A,,Overcast,10,2012-11-06 18:15:00
1:35 PM,48.2,33.8,58,-9999,10.0,North,24.2,33.4,N/A,,Overcast,10,2012-11-06 18:35:00
1:55 PM,48.2,32.0,54,-9999,10.0,North,18.4,33.4,N/A,,Overcast,10,2012-11-06 18:55:00
2:15 PM,48.2,32.0,54,-9999,10.0,North,19.6,35.7,N/A,,Overcast,360,2012-11-06 19:15:00
2:35 PM,48.2,32.0,54,-9999,10.0,North,19.6,31.1,N/A,,Overcast,10,2012-11-06 19:35:00
2:55 PM,48.2,32.0,54,-9999,10.0,North,19.6,28.8,N/A,,Overcast,10,2012-11-06 19:55:00
3:15 PM,46.4,33.8,62,-9999,10.0,North,18.4,24.2,N/A,,Overcast,10,2012-11-06 20:15:00
3:35 PM,46.4,33.8,62,-9999,10.0,North,15.0,26.5,N/A,,Overcast,10,2012-11-06 20:35:00
3:55 PM,46.4,33.8,62,-9999,10.0,North,12.7,17.3,N/A,,Overcast,360,2012-11-06 20:55:00
4:15 PM,46.4,33.8,62,-9999,10.0,NNE,16.1,25.3,N/A,,Overcast,30,2012-11-06 21:15:00
4:35 PM,46.4,33.8,62,-9999,10.0,NNE,17.3,25.3,N/A,,Overcast,30,2012-11-06 21:35:00
4:55 PM,46.4,33.8,62,-9999,10.0,NNE,17.3,25.3,N/A,,Overcast,30,2012-11-06 21:55:00
5:15 PM,44.6,33.8,66,-9999,10.0,North,15.0,27.6,N/A,,Overcast,10,2012-11-06 22:15:00
5:35 PM,44.6,33.8,66,-9999,10.0,North,12.7,19.6,N/A,,Overcast,360,2012-11-06 22:35:00
5:55 PM,44.6,35.6,71,-9999,10.0,North,17.3,20.7,N/A,,Overcast,360,2012-11-06 22:55:00
6:35 PM,44.6,33.8,66,-9999,10.0,NNE,13.8,20.7,N/A,,Overcast,20,2012-11-06 23:35:00
6:55 PM,42.8,33.8,70,-9999,10.0,NNE,12.7,20.7,N/A,,Overcast,20,2012-11-06 23:55:00
7:15 PM,42.8,33.8,70,-9999,10.0,North,10.4,19.6,N/A,,Overcast,360,2012-11-07 00:15:00
7:35 PM,42.8,32.0,66,-9999,10.0,North,18.4,27.6,N/A,,Overcast,10,2012-11-07 00:35:00
7:55 PM,42.8,33.8,70,-9999,10.0,North,11.5,-,N/A,,Overcast,10,2012-11-07 00:55:00
8:15 PM,42.8,33.8,70,-9999,10.0,North,10.4,21.9,N/A,,Overcast,10,2012-11-07 01:15:00
8:35 PM,42.8,33.8,70,-9999,10.0,North,11.5,21.9,N/A,,Overcast,10,2012-11-07 01:35:00
8:55 PM,42.8,33.8,70,-9999,10.0,North,15.0,20.7,N/A,,Overcast,10,2012-11-07 01:55:00
9:15 PM,42.8,32.0,66,-9999,10.0,NNE,15.0,20.7,N/A,,Overcast,20,2012-11-07 02:15:00
9:35 PM,42.8,32.0,66,-9999,10.0,NNE,16.1,23.0,N/A,,Overcast,30,2012-11-07 02:35:00
9:55 PM,42.8,32.0,66,-9999,10.0,NNE,20.7,27.6,N/A,,Overcast,20,2012-11-07 02:55:00
10:15 PM,42.8,32.0,66,-9999,10.0,NNE,15.0,26.5,N/A,,Overcast,30,2012-11-07 03:15:00
10:35 PM,42.8,32.0,66,-9999,10.0,NNE,15.0,21.9,N/A,,Overcast,20,2012-11-07 03:35:00
10:55 PM,41.0,32.0,70,-9999,10.0,North,15.0,18.4,N/A,,Overcast,10,2012-11-07 03:55:00
11:15 PM,41.0,32.0,70,-9999,10.0,North,10.4,-,N/A,,Overcast,360,2012-11-07 04:15:00
11:35 PM,41.0,32.0,70,-9999,10.0,North,12.7,19.6,N/A,,Overcast,10,2012-11-07 04:35:00
11:55 PM,39.2,32.0,75,-9999,10.0,North,8.1,-,N/A,,Overcast,10,2012-11-07 04:55:00